| time (UTC) | temp F | wind direction | speed MPH | gust MPH | rain 1hr in | rain 24hr in | rain mn in | humidity % | barometer mb |
| 20260507021120 | 0 | 144 | 1.0 | 2.0 | 0.00 | 0.03 | 0.03 | 1004.4 | |
| 20260507020619 | 0 | 88 | 0.0 | 0.0 | 0.00 | 0.03 | 0.03 | 1004.4 | |
| 20260507020115 | 0 | 117 | 0.0 | 0.0 | 0.00 | 0.03 | 0.03 | 1004.5 | |
| 20260507015614 | 0 | 82 | 0.0 | 0.0 | 0.00 | 0.03 | 0.03 | 1004.5 | |
| 20260507015111 | 0 | 58 | 1.0 | 2.0 | 0.00 | 0.03 | 0.03 | 1004.5 | |
| 20260507014607 | 0 | 85 | 0.0 | 0.0 | 0.00 | 0.03 | 0.03 | 1004.4 | |
| 20260507014103 | 0 | 77 | 0.0 | 0.0 | 0.00 | 0.03 | 0.03 | 1004.4 | |
| 20260507013600 | 0 | 111 | 0.0 | 1.0 | 0.00 | 0.03 | 0.03 | 1004.3 | |
| 20260507013057 | 0 | 153 | 1.0 | 1.0 | 0.00 | 0.03 | 0.03 | 1004.6 | |
| 20260507012554 | 0 | 75 | 0.0 | 0.0 | 0.00 | 0.03 | 0.03 | 1004.5 | |
| 20260507012050 | 0 | 202 | 1.0 | 2.0 | 0.00 | 0.03 | 0.03 | 1004.6 | |
| 20260507011548 | 0 | 148 | 1.0 | 2.0 | 0.00 | 0.03 | 0.03 | 1004.7 | |
| 20260507011044 | 0 | 60 | 0.0 | 0.0 | 0.00 | 0.03 | 0.03 | 1004.7 | |
| 20260507010539 | 0 | 113 | 1.0 | 1.0 | 0.00 | 0.03 | 0.03 | 1004.8 | |
| 20260507010035 | 0 | 227 | 4.0 | 6.0 | 0.00 | 0.03 | 0.03 | 1004.7 | |
| 20260507005533 | 0 | 104 | 0.0 | 0.0 | 0.00 | 0.03 | 0.03 | 1004.8 | |
| 20260507005029 | 0 | 249 | 1.0 | 2.0 | 0.00 | 0.03 | 0.03 | 1004.6 | |
| 20260507004526 | 0 | 86 | 0.0 | 0.0 | 0.00 | 0.03 | 0.03 | 1004.5 | |
| 20260507004023 | 0 | 125 | 3.0 | 3.0 | 0.00 | 0.03 | 0.03 | 1004.9 | |
| 20260507003519 | 0 | 90 | 0.0 | 0.0 | 0.00 | 0.03 | 0.03 | 1004.7 | |
| 20260507003014 | 0 | 154 | 2.0 | 2.0 | 0.00 | 0.03 | 0.03 | 1004.7 | |
| 20260507002511 | 0 | 134 | 1.0 | 2.0 | 0.00 | 0.03 | 0.03 | 1004.8 | |
| 20260507002007 | 0 | 109 | 0.0 | 1.0 | 0.00 | 0.03 | 0.03 | 1004.6 | |
| 20260507001503 | 0 | 127 | 1.0 | 2.0 | 0.00 | 0.03 | 0.03 | 1004.7 | |
| 20260507001001 | 0 | 31 | 2.0 | 2.0 | 0.00 | 0.03 | 0.03 | 1004.6 | |
| 20260507000457 | 0 | 109 | 0.0 | 0.0 | 0.00 | 0.03 | 0.03 | 1004.4 | |
| 20260506235952 | 0 | 227 | 2.0 | 3.0 | 0.00 | 0.03 | 0.03 | 1004.3 | |
| 20260506235450 | 0 | 115 | 1.0 | 1.0 | 0.00 | 0.03 | 0.03 | 1004.4 | |
| 20260506234946 | 0 | 117 | 0.0 | 0.0 | 0.00 | 0.03 | 0.03 | 1004.4 | |
| 20260506234443 | 0 | 169 | 1.0 | 2.0 | 0.00 | 0.03 | 0.03 | 1004.1 | |
| 20260506233941 | 0 | 69 | 0.0 | 0.0 | 0.00 | 0.03 | 0.03 | 1004.3 | |
| 20260506233437 | 0 | 74 | 0.0 | 0.0 | 0.00 | 0.03 | 0.03 | 1004.4 | |
| 20260506232934 | 0 | 79 | 0.0 | 0.0 | 0.05 | 0.03 | 0.03 | 1004.4 | |
| 20260506232430 | 0 | 242 | 0.0 | 0.0 | 0.05 | 0.03 | 0.03 | 1004.5 | |
| 20260506231926 | 0 | 110 | 0.0 | 0.0 | 0.00 | 0.02 | 0.02 | 1004.1 | |
| 20260506231423 | 0 | 28 | 0.0 | 0.0 | 0.00 | 0.02 | 0.02 | 1004.4 | |
| 20260506230920 | 0 | 149 | 1.0 | 1.0 | 0.07 | 0.02 | 0.02 | 1004.2 | |
| 20260506230417 | 0 | 49 | 0.0 | 0.0 | 0.07 | 0.02 | 0.02 | 1004.4 | |
| 20260506225914 | 0 | 87 | 1.0 | 2.0 | 0.00 | 0.01 | 0.01 | 1004.3 | |
| 20260506225411 | 0 | 23 | 0.0 | 0.0 | 0.00 | 0.01 | 0.01 | 1004.3 | |
| 20260506224908 | 0 | 241 | 0.0 | 1.0 | 0.00 | 0.01 | 0.01 | 1004.3 | |
| 20260506224405 | 0 | 76 | 0.0 | 0.0 | 0.00 | 0.01 | 0.01 | 1004.4 | |
| 20260506223901 | 0 | 17 | 0.0 | 1.0 | 0.00 | 0.01 | 0.01 | 1004.6 | |
| 20260506223356 | 0 | 40 | 0.0 | 0.0 | 0.05 | 0.01 | 0.01 | 1004.5 | |
| 20260506222854 | 0 | 127 | 0.0 | 1.0 | 0.05 | 0.01 | 0.01 | 1004.7 | |
| 20260506222350 | 0 | 233 | 3.0 | 5.0 | 0.00 | 0.00 | 0.00 | 1004.4 | |
| 20260506221848 | 0 | 176 | 0.0 | 0.0 | 0.00 | 0.00 | 0.00 | 1004.6 | |
| 20260506221345 | 0 | 184 | 0.0 | 0.0 | 0.00 | 0.00 | 0.00 | 1004.5 | |
| 20260506220842 | 0 | 115 | 0.0 | 0.0 | 0.00 | 0.00 | 0.00 | 1004.8 | |
| 20260506220338 | 0 | 69 | 0.0 | 0.0 | 0.00 | 0.00 | 0.00 | 1004.8 | |
| 20260506215835 | 0 | 173 | 3.0 | 6.0 | 0.00 | 0.00 | 0.00 | 1004.9 | |
| 20260506215330 | 0 | 173 | 3.0 | 6.0 | 0.00 | 0.00 | 0.00 | 1004.9 | |
| 20260506214826 | 0 | 104 | 0.0 | 0.0 | 0.00 | 0.07 | 0.07 | 1004.7 | |
| 20260506214323 | 0 | 81 | 1.0 | 1.0 | 0.07 | 0.07 | 0.07 | 1005.0 | |
| 20260506213822 | 0 | 107 | 0.0 | 0.0 | 0.07 | 0.07 | 0.07 | 1004.9 | |
| 20260506213319 | 0 | 178 | 2.0 | 2.0 | 0.00 | 0.06 | 0.06 | 1004.7 | |
| 20260506212816 | 0 | 13 | 2.0 | 3.0 | 0.00 | 0.06 | 0.06 | 1005.1 | |
| 20260506212311 | 0 | 30 | 3.0 | 3.0 | 0.00 | 0.06 | 0.06 | 1004.8 | |
| 20260506211807 | 0 | 250 | 2.0 | 3.0 | 0.00 | 0.06 | 0.06 | 1004.9 | |
| 20260506211303 | 0 | 71 | 0.0 | 0.0 | 0.00 | 0.06 | 0.06 | 1004.9 | |
| 20260506210801 | 0 | 65 | 0.0 | 0.0 | 0.00 | 0.06 | 0.06 | 1005.1 | |
| 20260506210257 | 0 | 63 | 1.0 | 2.0 | 0.00 | 0.06 | 0.06 | 1005.1 | |
| 20260506205754 | 0 | 49 | 0.0 | 0.0 | 0.00 | 0.06 | 0.06 | 1005.1 | |
| 20260506205249 | 0 | 136 | 1.0 | 1.0 | 0.00 | 0.06 | 0.06 | 1005.3 | |
| 20260506204746 | 0 | 135 | 2.0 | 3.0 | 0.00 | 0.06 | 0.06 | 1005.4 | |
| 20260506204245 | 0 | 133 | 1.0 | 1.0 | 0.00 | 0.06 | 0.06 | 1005.1 | |
| 20260506203742 | 0 | 79 | 0.0 | 0.0 | 0.00 | 0.06 | 0.06 | 1005.3 | |
| 20260506203239 | 0 | 55 | 0.0 | 0.0 | 0.00 | 0.06 | 0.06 | 1005.3 | |
| 20260506202736 | 0 | 13 | 2.0 | 2.0 | 0.00 | 0.06 | 0.06 | 1005.3 | |
| 20260506202233 | 0 | 150 | 0.0 | 1.0 | 0.05 | 0.06 | 0.06 | 1005.4 | |
| 20260506201730 | 0 | 61 | 0.0 | 0.0 | 0.05 | 0.06 | 0.06 | 1005.2 | |
| 20260506201226 | 0 | 186 | 3.0 | 5.0 | 0.00 | 0.05 | 0.05 | 1005.2 | |
| 20260506200723 | 0 | 357 | 1.0 | 1.0 | 0.00 | 0.05 | 0.05 | 1005.2 | |
| 20260506200220 | 0 | 58 | 1.0 | 1.0 | 0.00 | 0.05 | 0.05 | 1005.3 | |
| 20260506195716 | 0 | 84 | 0.0 | 0.0 | 0.00 | 0.05 | 0.05 | 1005.3 | |
| 20260506195212 | 0 | 73 | 0.0 | 0.0 | 0.00 | 0.05 | 0.05 | 1005.2 | |
| 20260506194705 | 0 | 66 | 1.0 | 1.0 | 0.00 | 0.05 | 0.05 | 1005.1 | |
| 20260506194201 | 0 | 178 | 1.0 | 1.0 | 0.07 | 0.05 | 0.05 | 1005.1 | |
| 20260506193658 | 0 | 204 | 1.0 | 2.0 | 0.12 | 0.05 | 0.05 | 1005.1 | |
| 20260506193155 | 0 | 145 | 2.0 | 2.0 | 0.05 | 0.04 | 0.04 | 1005.2 | |
| 20260506192652 | 0 | 82 | 1.0 | 2.0 | 0.07 | 0.03 | 0.03 | 1005.5 | |
| 20260506192148 | 0 | 48 | 0.0 | 1.0 | 0.07 | 0.03 | 0.03 | 1005.6 | |
| 20260506191646 | 0 | 154 | 1.0 | 1.0 | 0.05 | 0.02 | 0.02 | 1005.5 | |
| 20260506191141 | 0 | 95 | 1.0 | 1.0 | 0.05 | 0.02 | 0.02 | 1005.4 | |
| 20260506190639 | 0 | 105 | 1.0 | 1.0 | 0.07 | 0.01 | 0.01 | 1005.3 | |
| 20260506190135 | 0 | 52 | 0.0 | 1.0 | 0.07 | 0.01 | 0.01 | 1005.4 | |
| 20260506185632 | 0 | 119 | 1.0 | 1.0 | 0.00 | 0.00 | 0.00 | 1005.4 | |
| 20260506185128 | 0 | 83 | 1.0 | 2.0 | 0.00 | 0.00 | 0.00 | 1005.3 | |
| 20260506184626 | 0 | 82 | 2.0 | 3.0 | 0.00 | 0.00 | 0.00 | 1005.6 | |
| 20260506184123 | 0 | 85 | 0.0 | 0.0 | 0.00 | 0.00 | 0.00 | 1005.7 | |
| 20260506183620 | 0 | 54 | 0.0 | 0.0 | 0.00 | 0.00 | 0.00 | 1005.7 | |
| 20260506183116 | 0 | 171 | 2.0 | 3.0 | 0.00 | 0.00 | 0.00 | 1005.6 | |
| 20260506182614 | 0 | 134 | 2.0 | 2.0 | 0.00 | 0.00 | 0.00 | 1005.8 | |
| 20260506182110 | 0 | 17 | 2.0 | 2.0 | 0.00 | 0.00 | 0.00 | 1005.8 | |
| 20260506181608 | 0 | 134 | 1.0 | 1.0 | 0.00 | 0.00 | 0.00 | 1005.5 | |
| 20260506181105 | 0 | 208 | 2.0 | 5.0 | 0.00 | 0.00 | 0.00 | 1005.6 | |
| 20260506180602 | 0 | 147 | 3.0 | 5.0 | 0.00 | 0.00 | 0.00 | 1005.9 | |
| 20260506180059 | 0 | 75 | 1.0 | 1.0 | 0.00 | 0.00 | 0.00 | 1005.6 | |
| 20260506175554 | 0 | 220 | 4.0 | 6.0 | 0.00 | 0.00 | 0.00 | 1005.6 | |
| 20260506175051 | 0 | 194 | 0.0 | 1.0 | 0.00 | 0.00 | 0.00 | 1005.9 | |
| 20260506174550 | 0 | 97 | 1.0 | 1.0 | 0.00 | 0.00 | 0.00 | 1005.6 | |
| 20260506174046 | 0 | 205 | 3.0 | 5.0 | 0.00 | 0.00 | 0.00 | 1005.8 | |
| 20260506173544 | 0 | 200 | 5.0 | 8.0 | 0.00 | 0.00 | 0.00 | 1005.8 | |
| 20260506173040 | 0 | 36 | 1.0 | 2.0 | 0.00 | 0.00 | 0.00 | 1005.9 | |
| 20260506172538 | 0 | 68 | 2.0 | 3.0 | 0.00 | 0.00 | 0.00 | 1005.6 | |
| 20260506172034 | 0 | 71 | 2.0 | 2.0 | 0.00 | 0.00 | 0.00 | 1005.8 | |
| 20260506171531 | 0 | 349 | 4.0 | 6.0 | 0.00 | 0.00 | 0.00 | 1006.0 | |
| 20260506171029 | 0 | 145 | 2.0 | 2.0 | 0.00 | 0.00 | 0.00 | 1005.9 | |
| 20260506170526 | 0 | 12 | 3.0 | 3.0 | 0.00 | 0.00 | 0.00 | 1005.8 | |
| 20260506170023 | 0 | 180 | 2.0 | 3.0 | 0.00 | 0.00 | 0.00 | 1005.8 | |
| 20260506165522 | 0 | 193 | 2.0 | 2.0 | 0.00 | 0.00 | 0.00 | 1005.8 | |
| 20260506165018 | 0 | 64 | 0.0 | 1.0 | 0.00 | 0.00 | 0.00 | 1005.9 | |
| 20260506164514 | 0 | 106 | 2.0 | 2.0 | 0.00 | 0.00 | 0.00 | 1006.0 | |
| 20260506164012 | 0 | 90 | 6.0 | 9.0 | 0.00 | 0.00 | 0.00 | 1006.3 | |
| 20260506163508 | 0 | 192 | 1.0 | 2.0 | 0.00 | 0.00 | 0.00 | 1006.2 | |
| 20260506163004 | 0 | 140 | 1.0 | 2.0 | 0.00 | 0.00 | 0.00 | 1006.2 | |
| 20260506162500 | 0 | 31 | 2.0 | 3.0 | 0.00 | 0.00 | 0.00 | 1006.2 | |
| 20260506161957 | 0 | 118 | 3.0 | 6.0 | 0.00 | 0.00 | 0.00 | 1006.3 | |
| 20260506161455 | 0 | 165 | 2.0 | 2.0 | 0.00 | 0.00 | 0.00 | 1006.5 | |
| 20260506160952 | 0 | 180 | 4.0 | 7.0 | 0.00 | 0.00 | 0.00 | 1006.5 | |
| 20260506160449 | 0 | 175 | 2.0 | 3.0 | 0.00 | 0.00 | 0.00 | 1006.8 | |
| 20260506155946 | 0 | 223 | 2.0 | 2.0 | 0.00 | 0.00 | 0.00 | 1006.8 | |
| 20260506155444 | 0 | 182 | 4.0 | 7.0 | 0.00 | 0.00 | 0.00 | 1007.0 | |
| 20260506153616 | 0 | 344 | 4.0 | 7.0 | 0.00 | 0.00 | 0.00 | 1007.3 | |
| 20260506153114 | 0 | 172 | 1.0 | 1.0 | 0.00 | 0.00 | 0.00 | 1007.0 | |
| 20260506152611 | 0 | 202 | 2.0 | 3.0 | 0.00 | 0.00 | 0.00 | 1007.3 | |
| 20260506152109 | 0 | 60 | 2.0 | 2.0 | 0.00 | 0.00 | 0.00 | 1007.3 | |
| 20260506151607 | 0 | 348 | 2.0 | 3.0 | 0.00 | 0.00 | 0.00 | 1007.2 | |
| 20260506151103 | 0 | 149 | 1.0 | 2.0 | 0.00 | 0.00 | 0.00 | 1007.3 | |
| 20260506150600 | 0 | 246 | 6.0 | 8.0 | 0.00 | 0.00 | 0.00 | 1007.5 | |
| 20260506150057 | 0 | 212 | 3.0 | 5.0 | 0.00 | 0.00 | 0.00 | 1007.4 | |
| 20260506145554 | 0 | 37 | 2.0 | 2.0 | 0.00 | 0.00 | 0.00 | 1007.1 | |
| 20260506145051 | 0 | 153 | 4.0 | 6.0 | 0.00 | 0.00 | 0.00 | 1007.4 | |
| 20260506144548 | 0 | 36 | 2.0 | 3.0 | 0.00 | 0.00 | 0.00 | 1007.7 | |
| 20260506144045 | 0 | 62 | 5.0 | 7.0 | 0.00 | 0.00 | 0.00 | 1007.4 | |
| 20260506143543 | 0 | 337 | 5.0 | 7.0 | 0.00 | 0.00 | 0.00 | 1007.2 | |
| 20260506143041 | 0 | 124 | 3.0 | 6.0 | 0.00 | 0.00 | 0.00 | 1007.4 | |
| 20260506142538 | 0 | 177 | 3.0 | 3.0 | 0.00 | 0.00 | 0.00 | 1007.4 | |
| 20260506142037 | 0 | 217 | 2.0 | 2.0 | 0.00 | 0.00 | 0.00 | 1007.5 | |
| 20260506141534 | 0 | 130 | 4.0 | 8.0 | 0.00 | 0.00 | 0.00 | 1007.4 | |
| 20260506141032 | 0 | 71 | 0.0 | 0.0 | 0.00 | 0.00 | 0.00 | 1007.2 | |
| 20260506140529 | 0 | 70 | 2.0 | 3.0 | 0.00 | 0.00 | 0.00 | 1007.2 | |
| 20260506140026 | 0 | 70 | 1.0 | 1.0 | 0.00 | 0.00 | 0.00 | 1007.4 | |
| 20260506135523 | 0 | 87 | 1.0 | 1.0 | 0.00 | 0.00 | 0.00 | 1007.6 | |
| 20260506135019 | 0 | 97 | 2.0 | 2.0 | 0.00 | 0.00 | 0.00 | 1007.7 | |
| 20260506134515 | 0 | 128 | 1.0 | 1.0 | 0.00 | 0.00 | 0.00 | 1007.4 | |
| 20260506134012 | 0 | 203 | 2.0 | 5.0 | 0.00 | 0.00 | 0.00 | 1007.4 | |
| 20260506133509 | 0 | 193 | 5.0 | 5.0 | 0.00 | 0.00 | 0.00 | 1007.8 | |
| 20260506133006 | 0 | 62 | 1.0 | 2.0 | 0.00 | 0.00 | 0.00 | 1007.9 | |
| 20260506132503 | 0 | 76 | 1.0 | 1.0 | 0.00 | 0.00 | 0.00 | 1008.1 | |
| 20260506132000 | 0 | 234 | 4.0 | 6.0 | 0.00 | 0.00 | 0.00 | 1008.1 | |
| 20260506131457 | 0 | 106 | 0.0 | 1.0 | 0.00 | 0.00 | 0.00 | 1008.2 | |
| 20260506130954 | 0 | 184 | 2.0 | 2.0 | 0.00 | 0.00 | 0.00 | 1008.2 | |
| 20260506130450 | 0 | 137 | 0.0 | 1.0 | 0.00 | 0.00 | 0.00 | 1008.0 | |
| 20260506125948 | 0 | 56 | 0.0 | 1.0 | 0.00 | 0.00 | 0.00 | 1008.1 | |
| 20260506125446 | 0 | 353 | 2.0 | 3.0 | 0.00 | 0.00 | 0.00 | 1008.0 | |
| 20260506124944 | 0 | 180 | 2.0 | 2.0 | 0.00 | 0.00 | 0.00 | 1007.9 | |
| 20260506124441 | 0 | 172 | 3.0 | 5.0 | 0.00 | 0.00 | 0.00 | 1007.8 | |
| 20260506123939 | 0 | 114 | 0.0 | 0.0 | 0.00 | 0.00 | 0.00 | 1008.1 | |
| 20260506123437 | 0 | 340 | 2.0 | 2.0 | 0.00 | 0.00 | 0.00 | 1008.1 | |
| 20260506122934 | 0 | 306 | 1.0 | 1.0 | 0.00 | 0.00 | 0.00 | 1008.2 | |
| 20260506122431 | 0 | 105 | 2.0 | 2.0 | 0.00 | 0.00 | 0.00 | 1008.2 | |
| 20260506121929 | 0 | 42 | 2.0 | 2.0 | 0.00 | 0.00 | 0.00 | 1008.3 | |
| 20260506121426 | 0 | 221 | 2.0 | 3.0 | 0.00 | 0.00 | 0.00 | 1008.2 | |
| 20260506120923 | 0 | 18 | 3.0 | 5.0 | 0.00 | 0.00 | 0.00 | 1008.4 | |
| 20260506120420 | 0 | 93 | 2.0 | 2.0 | 0.00 | 0.00 | 0.00 | 1008.2 | |
| 20260506115917 | 0 | 51 | 1.0 | 1.0 | 0.00 | 0.00 | 0.00 | 1008.1 | |
| 20260506115415 | 0 | 78 | 1.0 | 2.0 | 0.00 | 0.00 | 0.00 | 1008.4 | |
| 20260506114914 | 0 | 128 | 1.0 | 1.0 | 0.00 | 0.00 | 0.00 | 1008.4 | |
| 20260506114411 | 0 | 48 | 2.0 | 3.0 | 0.00 | 0.00 | 0.00 | 1008.5 | |
| 20260506113910 | 0 | 35 | 2.0 | 3.0 | 0.00 | 0.00 | 0.00 | 1008.2 | |
| 20260506113407 | 0 | 92 | 3.0 | 6.0 | 0.00 | 0.00 | 0.00 | 1008.5 | |
| 20260506112903 | 0 | 349 | 2.0 | 2.0 | 0.00 | 0.00 | 0.00 | 1008.9 | |
| 20260506112401 | 0 | 86 | 0.0 | 0.0 | 0.00 | 0.00 | 0.00 | 1008.6 | |
| 20260506111858 | 0 | 77 | 0.0 | 0.0 | 0.00 | 0.00 | 0.00 | 1008.8 | |
| 20260506111356 | 0 | 135 | 3.0 | 3.0 | 0.00 | 0.00 | 0.00 | 1008.7 | |
| 20260506110853 | 0 | 78 | 0.0 | 0.0 | 0.00 | 0.00 | 0.00 | 1008.5 | |
| 20260506110350 | 0 | 96 | 1.0 | 2.0 | 0.00 | 0.00 | 0.00 | 1008.4 | |
| 20260506105847 | 0 | 266 | 1.0 | 1.0 | 0.00 | 0.00 | 0.00 | 1008.5 | |
| 20260506105343 | 0 | 33 | 1.0 | 2.0 | 0.00 | 0.00 | 0.00 | 1008.6 | |
| 20260506104841 | 0 | 237 | 1.0 | 2.0 | 0.00 | 0.00 | 0.00 | 1008.4 | |
| 20260506104338 | 0 | 75 | 0.0 | 0.0 | 0.00 | 0.00 | 0.00 | 1008.8 | |
| 20260506103836 | 0 | 180 | 3.0 | 5.0 | 0.00 | 0.00 | 0.00 | 1008.7 | |
| 20260506103333 | 0 | 102 | 1.0 | 1.0 | 0.00 | 0.00 | 0.00 | 1008.7 | |
| 20260506102831 | 0 | 54 | 0.0 | 1.0 | 0.00 | 0.00 | 0.00 | 1008.7 | |
| 20260506102328 | 0 | 104 | 1.0 | 1.0 | 0.00 | 0.00 | 0.00 | 1008.7 | |
| 20260506101825 | 0 | 61 | 0.0 | 0.0 | 0.00 | 0.00 | 0.00 | 1008.8 | |
| 20260506101321 | 0 | 45 | 1.0 | 2.0 | 0.00 | 0.00 | 0.00 | 1008.5 | |
| 20260506100819 | 0 | 81 | 0.0 | 0.0 | 0.00 | 0.00 | 0.00 | 1008.5 | |
| 20260506100318 | 0 | 66 | 0.0 | 0.0 | 0.00 | 0.00 | 0.00 | 1008.5 | |
| 20260506095816 | 0 | 59 | 0.0 | 0.0 | 0.00 | 0.00 | 0.00 | 1008.5 | |
| 20260506095312 | 0 | 91 | 1.0 | 2.0 | 0.00 | 0.00 | 0.00 | 1008.5 | |
| 20260506094809 | 0 | 262 | 1.0 | 1.0 | 0.00 | 0.00 | 0.00 | 1008.4 | |
| 20260506094308 | 0 | 100 | 2.0 | 3.0 | 0.00 | 0.00 | 0.00 | 1008.4 | |
| 20260506093805 | 0 | 90 | 1.0 | 2.0 | 0.00 | 0.00 | 0.00 | 1008.3 | |
| 20260506093302 | 0 | 71 | 0.0 | 1.0 | 0.00 | 0.00 | 0.00 | 1008.5 | |
| 20260506092801 | 0 | 163 | 2.0 | 2.0 | 0.00 | 0.00 | 0.00 | 1008.4 | |
| 20260506092258 | 0 | 58 | 1.0 | 1.0 | 0.00 | 0.00 | 0.00 | 1008.4 | |
| 20260506091755 | 0 | 118 | 2.0 | 2.0 | 0.00 | 0.00 | 0.00 | 1008.2 | |
| 20260506091252 | 0 | 75 | 0.0 | 1.0 | 0.00 | 0.00 | 0.00 | 1008.5 | |
| 20260506090750 | 0 | 46 | 1.0 | 1.0 | 0.00 | 0.00 | 0.00 | 1008.3 | |
| 20260506090247 | 0 | 93 | 1.0 | 1.0 | 0.00 | 0.00 | 0.00 | 1008.1 | |
| 20260506085744 | 0 | 201 | 1.0 | 2.0 | 0.00 | 0.00 | 0.00 | 1008.4 | |
| 20260506085240 | 0 | 123 | 2.0 | 2.0 | 0.00 | 0.00 | 0.00 | 1008.3 | |
| 20260506084736 | 0 | 184 | 3.0 | 3.0 | 0.00 | 0.00 | 0.00 | 1008.4 | |
| 20260506084233 | 0 | 21 | 2.0 | 2.0 | 0.00 | 0.00 | 0.00 | 1008.6 | |
| 20260506083730 | 0 | 120 | 1.0 | 1.0 | 0.00 | 0.00 | 0.00 | 1008.5 | |
| 20260506083228 | 0 | 345 | 1.0 | 1.0 | 0.00 | 0.00 | 0.00 | 1008.5 | |
| 20260506082725 | 0 | 158 | 1.0 | 2.0 | 0.00 | 0.00 | 0.00 | 1008.4 | |
| 20260506082220 | 0 | 103 | 1.0 | 1.0 | 0.00 | 0.00 | 0.00 | 1008.6 | |
| 20260506081718 | 0 | 86 | 0.0 | 1.0 | 0.00 | 0.00 | 0.00 | 1008.5 | |
| 20260506081215 | 0 | 26 | 3.0 | 5.0 | 0.00 | 0.00 | 0.00 | 1008.6 | |
| 20260506080713 | 0 | 125 | 1.0 | 2.0 | 0.00 | 0.00 | 0.00 | 1008.5 | |
| 20260506080210 | 0 | 45 | 1.0 | 1.0 | 0.00 | 0.00 | 0.00 | 1008.6 | |
| 20260506073154 | 0 | 168 | 1.0 | 2.0 | 0.00 | 0.00 | 0.00 | 1008.5 | |
| 20260506072650 | 0 | 108 | 2.0 | 3.0 | 0.00 | 0.00 | 0.00 | 1008.3 | |
| 20260506072148 | 0 | 142 | 2.0 | 2.0 | 0.00 | 0.00 | 0.00 | 1008.2 | |
| 20260506071645 | 0 | 135 | 1.0 | 1.0 | 0.00 | 0.00 | 0.00 | 1008.2 | |
| 20260506071143 | 0 | 59 | 1.0 | 1.0 | 0.00 | 0.00 | 0.00 | 1008.1 | |
| 20260506070640 | 0 | 47 | 2.0 | 2.0 | 0.00 | 0.00 | 0.00 | 1008.2 | |
| 20260506070137 | 0 | 153 | 1.0 | 2.0 | 0.00 | 0.00 | 0.00 | 1008.0 | |
| 20260506062114 | 0 | 182 | 3.0 | 3.0 | 0.00 | 0.00 | 0.00 | 1007.9 | |
| 20260506061610 | 0 | 72 | 2.0 | 3.0 | 0.00 | 0.00 | 0.00 | 1007.6 | |
| 20260506061108 | 0 | 214 | 1.0 | 1.0 | 0.00 | 0.00 | 0.00 | 1007.8 | |
| 20260506060606 | 0 | 57 | 1.0 | 1.0 | 0.00 | 0.00 | 0.00 | 1007.8 | |
| 20260506051035 | 0 | 112 | 1.0 | 1.0 | 0.00 | 0.00 | 0.00 | 1008.1 | |
| 20260506050533 | 0 | 163 | 2.0 | 2.0 | 0.00 | 0.00 | 0.00 | 1008.1 | |
| 20260506045023 | 0 | 204 | 2.0 | 2.0 | 0.00 | 0.00 | 0.00 | 1008.2 | |
| 20260506044521 | 0 | 135 | 1.0 | 1.0 | 0.00 | 0.00 | 0.00 | 1008.3 | |
| 20260506044018 | 0 | 177 | 4.0 | 6.0 | 0.00 | 0.00 | 0.00 | 1008.1 | |
| 20260506043515 | 0 | 66 | 0.0 | 1.0 | 0.00 | 0.00 | 0.00 | 1008.2 | |
| 20260506043013 | 0 | 61 | 2.0 | 3.0 | 0.00 | 0.00 | 0.00 | 1008.3 | |
| 20260506042512 | 0 | 95 | 2.0 | 2.0 | 0.00 | 0.00 | 0.00 | 1008.2 | |
| 20260506042010 | 0 | 83 | 2.0 | 2.0 | 0.00 | 0.00 | 0.00 | 1008.3 | |
| 20260506041508 | 0 | 56 | 0.0 | 0.0 | 0.00 | 0.00 | 0.00 | 1008.3 | |
| 20260506041004 | 0 | 100 | 1.0 | 1.0 | 0.00 | 0.00 | 0.00 | 1008.2 | |
| 20260506040502 | 0 | 163 | 1.0 | 2.0 | 0.00 | 0.00 | 0.00 | 1008.4 | |
| 20260506035957 | 0 | 101 | 1.0 | 1.0 | 0.00 | 0.00 | 0.00 | 1008.3 | |
| 20260506035455 | 0 | 167 | 2.0 | 2.0 | 0.00 | 0.00 | 0.00 | 1008.4 | |
| 20260506034951 | 0 | 129 | 2.0 | 2.0 | 0.00 | 0.00 | 0.00 | 1008.2 | |
| 20260506034449 | 0 | 157 | 2.0 | 3.0 | 0.00 | 0.00 | 0.00 | 1008.4 | |
| 20260506033946 | 0 | 128 | 2.0 | 2.0 | 0.00 | 0.00 | 0.00 | 1008.2 | |
| 20260506033444 | 0 | 75 | 0.0 | 1.0 | 0.00 | 0.00 | 0.00 | 1008.4 | |
| 20260506032940 | 0 | 81 | 2.0 | 3.0 | 0.00 | 0.00 | 0.00 | 1008.0 | |
| 20260506032437 | 0 | 121 | 4.0 | 6.0 | 0.00 | 0.00 | 0.00 | 1008.4 | |
| 20260506031933 | 0 | 348 | 1.0 | 1.0 | 0.00 | 0.00 | 0.00 | 1008.2 | |
| 20260506031431 | 0 | 73 | 0.0 | 0.0 | 0.00 | 0.00 | 0.00 | 1008.0 | |
| 20260506030929 | 0 | 155 | 3.0 | 5.0 | 0.00 | 0.00 | 0.00 | 1008.3 | |
| 20260506030427 | 0 | 243 | 4.0 | 6.0 | 0.00 | 0.00 | 0.00 | 1008.3 | |
| 20260506025923 | 0 | 15 | 2.0 | 2.0 | 0.00 | 0.00 | 0.00 | 1008.2 | |
| 20260506025420 | 0 | 133 | 1.0 | 1.0 | 0.00 | 0.00 | 0.00 | 1008.3 | |
| 20260506024917 | 0 | 74 | 0.0 | 1.0 | 0.00 | 0.00 | 0.00 | 1008.2 | |
| 20260506024414 | 0 | 15 | 1.0 | 1.0 | 0.00 | 0.00 | 0.00 | 1008.5 | |
| 20260506023909 | 0 | 114 | 4.0 | 7.0 | 0.00 | 0.00 | 0.00 | 1008.1 | |
| 20260506023407 | 0 | 257 | 3.0 | 3.0 | 0.00 | 0.00 | 0.00 | 1008.2 | |
| 20260506022903 | 0 | 207 | 3.0 | 7.0 | 0.00 | 0.00 | 0.00 | 1008.3 | |
| 20260506022401 | 0 | 102 | 0.0 | 1.0 | 0.00 | 0.00 | 0.00 | 1008.2 | |
| 20260506021859 | 0 | 60 | 0.0 | 1.0 | 0.00 | 0.00 | 0.00 | 1008.2 | |
| 20260506021355 | 0 | 85 | 0.0 | 1.0 | 0.00 | 0.00 | 0.00 | 1008.3 |